Weather History for Rome Ciampino, Italy

Change the Weather History Date:

Wednesday, October 2, 2013

  Actual Average Record
Temperature  
Mean Temperature 68 °F -  
Max Temperature 78 °F 70 °F 82 °F (2011)
Min Temperature 59 °F 51 °F 48 °F (2002)
Cooling Degree Days 4    
Growing Degree Days 18 (Base 50)    
Moisture  
Dew Point 58 °F    
Average Humidity 73    
Maximum Humidity 88    
Minimum Humidity 42    
Precipitation  
Precipitation 0.00 in 0.13 in - ()
Sea Level Pressure  
Sea Level Pressure 29.88 in    
Wind  
Wind Speed 2 mph ()    
Max Wind Speed 8 mph    
Max Gust Speed -    
Visibility 6.2 miles    
Events      
Averages and records for this station are not official NWS values.
T = Trace of Precipitation, MM = Missing Value Source: Averaged Metar Reports

Daily Weather History Graph

Daily Weather History Graph

Search for Another Location

Airport:

Trip Planner

Search our weather history database for the weather conditions in past years. The results will help you decide how hot, cold, wet, or windy it might be!

Date:

Astronomy

Oct. 02, 2013 Rise Set
Actual Time 7:07 AM CEST 6:49 PM CEST
Civil Twilight 6:39 AM CEST 7:17 PM CEST
Nautical Twilight 6:07 AM CEST 7:49 PM CEST
Astronomical Twilight 5:34 AM CEST 8:22 PM CEST
Moon 4:21 AM CEST (10/2) 5:17 PM CEST (10/2)
Length of Visible Light 12h 37m
Length of Day
11h 42m
Waning Crescent, 7% of the Moon is Illuminated
Oct 2
Waning Crescent
Oct 5
New
Oct 12
First Quarter
Oct 19
Full
Oct 27
Last Quarter

Hourly Weather History & Observations

Time (CEST) Temp. Dew Point Humidity Pressure Visibility Wind Dir Wind Speed Gust Speed Precip Events Conditions
12:15 AM 64.4 °F 59.0 °F 83% 29.77 in - South 2.3 mph - N/A   Clear
12:45 AM 64.4 °F 60.8 °F 88% 29.77 in - SE 1.2 mph - N/A   Clear
1:15 AM 62.6 °F 59.0 °F 88% 29.77 in - Calm Calm - N/A   Clear
1:45 AM 62.6 °F 59.0 °F 88% 29.80 in - Calm Calm - N/A   Clear
2:15 AM 62.6 °F 57.2 °F 82% 29.80 in - Calm Calm - N/A   Clear
2:45 AM 62.6 °F 57.2 °F 82% 29.80 in - Calm Calm - N/A   Clear
3:15 AM 60.8 °F 57.2 °F 88% 29.80 in - Calm Calm - N/A   Clear
3:45 AM 60.8 °F 57.2 °F 88% 29.80 in - Calm Calm - N/A   Clear
4:15 AM 59.0 °F 55.4 °F 88% 29.80 in - Calm Calm - N/A   Clear
4:45 AM 59.0 °F 55.4 °F 88% 29.80 in - NE 2.3 mph - N/A   Clear
5:15 AM 59.0 °F 55.4 °F 88% 29.80 in - ENE 1.2 mph - N/A   Clear
5:45 AM 59.0 °F 55.4 °F 88% 29.80 in - Calm Calm - N/A   Clear
6:15 AM 59.0 °F 55.4 °F 88% 29.80 in - NE 1.2 mph - N/A   Clear
6:45 AM 59.0 °F 55.4 °F 88% 29.83 in - Calm Calm - N/A   Clear
7:15 AM 59.0 °F 55.4 °F 88% 29.83 in 6.2 mi NE 3.5 mph - N/A   Partly Cloudy
7:45 AM 59.0 °F 55.4 °F 88% 29.83 in 6.2 mi NE 2.3 mph - N/A   Partly Cloudy
8:15 AM 60.8 °F 57.2 °F 88% 29.86 in 6.2 mi Calm Calm - N/A   Partly Cloudy
8:45 AM 62.6 °F 59.0 °F 88% 29.86 in 6.2 mi NE 2.3 mph - N/A   Partly Cloudy
9:15 AM 64.4 °F 59.0 °F 83% 29.86 in 6.2 mi North 3.5 mph - N/A   Partly Cloudy
9:45 AM 77.0 °F 64.4 °F 65% 29.89 in 6.2 mi North 5.8 mph - N/A   Partly Cloudy
10:15 AM 68.0 °F 57.2 °F 68% 29.89 in 6.2 mi North 3.5 mph - N/A   Partly Cloudy
10:45 AM 69.8 °F 59.0 °F 68% 29.89 in - NE 2.3 mph - N/A   Clear
11:15 AM 71.6 °F 60.8 °F 69% 29.89 in - NNE 2.3 mph - N/A   Clear
11:45 AM 73.4 °F 55.4 °F 53% 29.89 in - NE 3.5 mph - N/A   Clear
12:15 PM 73.4 °F 55.4 °F 53% 29.89 in 6.2 mi SSE 2.3 mph - N/A   Partly Cloudy
12:45 PM 75.2 °F 55.4 °F 50% 29.92 in 6.2 mi ENE 1.2 mph - N/A   Partly Cloudy
1:15 PM 75.2 °F 55.4 °F 50% 29.89 in 6.2 mi NW 3.5 mph - N/A   Partly Cloudy
1:45 PM 77.0 °F 55.4 °F 47% 29.89 in 6.2 mi WNW 3.5 mph - N/A   Partly Cloudy
2:15 PM 77.0 °F 53.6 °F 44% 29.89 in 6.2 mi ENE 5.8 mph - N/A   Partly Cloudy
2:45 PM 77.0 °F 53.6 °F 44% 29.89 in 6.2 mi SW 5.8 mph - N/A   Scattered Clouds
3:15 PM 77.0 °F 53.6 °F 44% 29.89 in 6.2 mi WNW 1.2 mph - N/A   Scattered Clouds
3:45 PM 78.8 °F 53.6 °F 42% 29.89 in 6.2 mi NNW 2.3 mph - N/A   Scattered Clouds
4:15 PM 77.0 °F 53.6 °F 44% 29.89 in 6.2 mi WNW 2.3 mph - N/A   Scattered Clouds
4:45 PM 77.0 °F 60.8 °F 57% 29.92 in 6.2 mi WSW 8.1 mph - N/A   Mostly Cloudy
5:15 PM 77.0 °F 60.8 °F 57% 29.92 in 6.2 mi West 6.9 mph - N/A   Mostly Cloudy
5:45 PM 77.0 °F 60.8 °F 57% 29.92 in 6.2 mi West 5.8 mph - N/A   Mostly Cloudy
6:15 PM 75.2 °F 62.6 °F 65% 29.92 in 6.2 mi WSW 4.6 mph - N/A   Mostly Cloudy
6:45 PM 73.4 °F 62.6 °F 69% 29.95 in 6.2 mi WSW 2.3 mph - N/A   Scattered Clouds
7:15 PM 71.6 °F 64.4 °F 78% 29.95 in 6.2 mi South 4.6 mph - N/A   Scattered Clouds
7:45 PM 69.8 °F 62.6 °F 78% 29.95 in 6.2 mi South 5.8 mph - N/A   Partly Cloudy
8:15 PM 69.8 °F 62.6 °F 78% 29.98 in 6.2 mi South 6.9 mph - N/A   Partly Cloudy
8:45 PM 68.0 °F 62.6 °F 83% 29.98 in 6.2 mi South 6.9 mph - N/A   Partly Cloudy
9:15 PM 68.0 °F 62.6 °F 83% 29.98 in 6.2 mi South 6.9 mph - N/A   Partly Cloudy
9:45 PM 68.0 °F 64.4 °F 88% 30.01 in 6.2 mi South 5.8 mph - N/A   Partly Cloudy
10:15 PM 68.0 °F 64.4 °F 88% 30.01 in 6.2 mi South 4.6 mph - N/A   Partly Cloudy
10:45 PM 66.2 °F 62.6 °F 88% 30.04 in 6.2 mi East 5.8 mph - N/A   Partly Cloudy
11:15 PM 66.2 °F 60.8 °F 83% 30.04 in 6.2 mi ENE 1.2 mph - N/A   Scattered Clouds
11:45 PM 66.2 °F 60.8 °F 83% 30.04 in 6.2 mi ENE 1.2 mph - N/A   Scattered Clouds